Regional Weather Roundup
Issued by NWS Little Rock, AR

Home | Current Version | Previous Version | Graphics & Text | Print | Product List | Glossary On
Versions: 1 2 3 4 5 6 7 8 9 10 11 12 13 14 15 16 17 18 19 20 21 22 23 24 25 26 27 28 29 30 31 32 33 34 35 36 37 38 39 40 41 42 43 44 45 46 47 48 49 50
000
ASUS44 KLZK 191805
RWRLZK

WEATHER ROUNDUP FOR ARKANSAS
NATIONAL WEATHER SERVICE LITTLE ROCK AR
1200 PM CST SUN FEB 19 2017

NOTE: "FAIR" INDICATES FEW OR NO CLOUDS BELOW 12,000 FEET WITH NO
SIGNIFICANT WEATHER AND/OR OBSTRUCTIONS TO VISIBILITY.

ARZ001-003-010-029-191900-
NORTHWEST ARKANSAS

CITY           SKY/WX    TMP DP  RH WIND       PRES   REMARKS
FAYETTEVILLE   SUNNY     70  57  63 S15       30.01F
6HR MIN TEMP:  38; 6HR MAX TEMP:  71; 6HR PCP: TRACE;

FORT SMITH     MOSUNNY   69  55  60 VRB3      30.02F
6HR MIN TEMP:  49; 6HR MAX TEMP:  70;

HARRISON       MOSUNNY   69  58  67 SE15G21   30.03F
6HR MIN TEMP:  44; 6HR MAX TEMP:  69;

BENTONVILLE    SUNNY     72  57  60 S10       30.02S
6HR MIN TEMP:  46; 6HR MAX TEMP:  72;

ROGERS         SUNNY     71  58  63 S9        30.01S
6HR MIN TEMP:  46; 6HR MAX TEMP:  71;

SILOAM SPGS    MOSUNNY   70  55  60 SW10      30.01S
6HR MIN TEMP:  48; 6HR MAX TEMP:  70;

HIGHFILL       SUNNY     72  57  59 SW12      30.00S
6HR MIN TEMP:  44; 6HR MAX TEMP:  72;

SPRINGDALE     SUNNY     70  59  68 S9        30.02F
$$

ARZ004-005-016-191900-
NORTH CENTRAL ARKANSAS

CITY           SKY/WX    TMP DP  RH WIND       PRES   REMARKS
BATESVILLE     CLOUDY    66  54  63 S7        30.10S
6HR MIN TEMP:  46; 6HR MAX TEMP:  66;

FLIPPIN        CLOUDY    66  54  63 SE5       30.03F
6HR MIN TEMP:  41; 6HR MAX TEMP:  66;

MTN HOME       CLOUDY    66  56  70 S9        30.05F
6HR MIN TEMP:  43; 6HR MAX TEMP:  66;

$$

ARZ040-041-191900-
WEST CENTRAL ARKANSAS

CITY           SKY/WX    TMP DP  RH WIND       PRES   REMARKS
MENA           CLOUDY    64  64 100 CALM      30.04S
MOUNT IDA      CLOUDY    64  59  83 CALM      30.03S
6HR MIN TEMP:  52; 6HR MAX TEMP:  64;

$$

ARZ009-017-025-026-028-191900-
NORTHEAST ARKANSAS

CITY           SKY/WX    TMP DP  RH WIND       PRES   REMARKS
CORNING        CLOUDY    57  57 100 CALM      30.11F
JONESBORO      SUNNY     66  57  72 SE5       30.10S
6HR MIN TEMP:  46; 6HR MAX TEMP:  66;

NEWPORT        CLOUDY    67  57  70 MISG      30.10
6HR MIN TEMP:  44; 6HR MAX TEMP:  67;

WALNUT RIDGE   MOSUNNY   57  54  88 CALM      30.11S
6HR MIN TEMP:  45; 6HR MAX TEMP:  57;

BLYTHEVILLE    SUNNY     68  57  68 MISG      30.11F
6HR MIN TEMP:  46; 6HR MAX TEMP:  68;

$$

ARZ022-023-033-042-044-191900-
CENTRAL ARKANSAS

CITY           SKY/WX    TMP DP  RH WIND       PRES   REMARKS
LITTLE ROCK    MOSUNNY   70  59  68 SE10      30.05F
6HR MIN TEMP:  48; 6HR MAX TEMP:  70;

JACKSONVILLE   MOSUNNY   67  59  76 E9        30.05F
6HR MIN TEMP:  46; 6HR MAX TEMP:  67;

SEARCY         CLOUDY    61  57  87 SE5       30.10F
6HR MIN TEMP:  45; 6HR MAX TEMP:  61;

HOT SPRINGS    CLOUDY    66  59  78 E6        30.04F
6HR MIN TEMP:  57; 6HR MAX TEMP:  67;

RUSSELLVILLE   MOSUNNY   68  57  68 VRB6      30.03F
6HR MIN TEMP:  51; 6HR MAX TEMP:  68;

CLINTON        CLOUDY    59  55  88 E3        30.08F FOG
$$

ARZ036-191900-
EAST ARKANSAS

CITY           SKY/WX    TMP DP  RH WIND       PRES   REMARKS
WEST MEMPHIS   SUNNY     69  57  65 S7        30.09S
6HR MIN TEMP:  44; 6HR MAX TEMP:  69;

$$

ARZ050-053-066-070-073-191900-
SOUTHWEST ARKANSAS

CITY           SKY/WX    TMP DP  RH WIND       PRES   REMARKS
ARKADELPHIA    CLOUDY    67  61  81 E3        30.06F
6HR MIN TEMP:  53; 6HR MAX TEMP:  68;

CAMDEN         MOSUNNY   72  57  60 S6        30.05S
TEXARKANA      CLOUDY    63  61  93 SE6       30.02F
6HR MIN TEMP:  55; 6HR MAX TEMP:  63;

EL DORADO      PTSUNNY   68  59  73 SE7       30.06S
6HR MIN TEMP:  57; 6HR MAX TEMP:  68;

DE QUEEN       CLOUDY    62  62 100 E8        30.01F FOG
6HR MIN TEMP:  57; 6HR MAX TEMP:  62;

$$

ARZ056-057-069-191900-
SOUTHEAST ARKANSAS

CITY           SKY/WX    TMP DP  RH WIND       PRES   REMARKS
PINE BLUFF     SUNNY     71  59  65 E8        30.05F
6HR MIN TEMP:  51; 6HR MAX TEMP:  71;

STUTTGART      PTSUNNY   66  52  59 SE8       30.09F
6HR MIN TEMP:  48; 6HR MAX TEMP:  66; 6HR PCP:  0.01;

MONTICELLO     SUNNY     73  58  59 E8        30.05F
6HR MIN TEMP:  51; 6HR MAX TEMP:  74;


$$





USA.gov is the U.S. government's official web portal to all federal, state and local government web resources and services.